Presure
113 112 131 106 169 175 216 119 301 293 270 337 318 331 344 340 348 311 296 306 336 317 294 266 256 251 246 247 253 216 204 224 199 188 210 221 216 202 196 183 180 172 175 175 187 184 188
125 178 165 136 97 242 182 143 297 309 320 332 326 356 231 351 345 326 306 304 299 332 310 280 258 252 249 256 246 252 223 225 197 220 179 217 219 212 212 204 199 179 189 185 174 178 179
138 222 118 191 100 234 276 131 309 318 355 352 346 321 316 284 299 326 316 296 299 288 322 312 268 261 240 248 239 247 246 225 224 203 228 218 171 211 214 208 204 203 198 186 197 186 192
152 142 196 131 130 179 252 241 318 348 348 351 457 469 506 459 375 309 324 302 296 291 295 325 301 261 251 245 235 229 252 251 227 213 239 213 204 210 208 176 203 203 204 201 197 198 188
211 226 124 132 187 201 267 304 313 378 350 493 490 510 514 512 457 367 309 297 293 296 288 292 330 283 264 240 231 234 242 242 245 234 226 242 234 201 207 207 202 200 204 204 195 189 196
119 127 131 198 234 172 317 311 323 310 501 558 545 532 519 519 505 524 336 294 288 288 285 284 294 310 275 256 235 236 237 238 232 238 243 225 236 226 197 193 197 205 204 197 199 199 196
110 111 204 165 165 264 204 320 350 344 566 547 533 520 486 496 503 501 430 309 273 286 286 275 280 296 305 258 247 236 232 236 231 243 235 238 256 222 232 214 205 197 202 201 203 203 206
119 198 173 194 250 259 310 316 388 423 558 549 477 454 448 433 439 505 456 358 285 276 283 284 272 279 292 318 258 252 237 234 227 233 242 245 234 234 244 229 235 215 203 201 205 205 203
140 139 201 171 251 258 308 319 373 559 584 494 475 436 465 442 443 454 460 406 300 279 272 273 270 267 270 289 318 258 246 241 234 238 225 238 244 250 236 234 225 226 241 233 226 205 206
112 199 224 237 128 275 325 313 349 449 471 475 460 457 434 429 429 476 523 403 399 276 263 272 267 259 267 274 335 291 253 254 249 240 231 238 226 232 234 241 233 227 218 219 239 244 231
222 194 219 237 243 273 323 379 346 423 444 443 436 433 438 412 424 485 472 471 418 274 272 265 261 261 260 264 279 323 285 282 241 242 227 226 226 227 229 228 228 238 238 236 235 254 237
219 204 217 240 245 272 346 371 416 414 439 461 447 438 441 438 470 480 450 432 389 269 262 268 260 257 251 259 263 266 300 279 272 279 248 237 234 225 228 234 228 226 227 229 229 251 245
158 190 218 240 269 309 342 364 420 419 433 449 496 462 462 472 488 412 375 420 357 276 268 253 254 239 253 249 254 261 293 283 261 264 272 243 234 245 230 228 232 232 230 234 240 244 252
118 179 135 238 268 305 344 362 428 437 452 450 457 443 486 498 472 389 383 364 342 277 259 249 253 240 239 256 254 255 263 322 278 259 256 259 264 270 239 243 231 238 233 238 243 246 248
142 211 180 234 267 302 288 369 452 456 480 452 466 472 466 456 394 359 357 339 331 270 261 250 241 241 250 247 257 252 265 307 297 260 259 254 256 259 242 253 241 240 243 247 244 258 296
161 173 218 229 280 291 281 376 477 463 519 465 475 487 467 373 352 339 325 335 327 269 253 242 245 232 230 246 245 292 296 293 290 275 262 262 255 252 256 261 262 259 260 283 274 253 242
196 203 218 229 282 287 280 358 471 540 530 501 478 398 372 352 334 339 324 326 327 258 247 245 239 231 236 247 294 285 281 285 290 291 291 247 254 262 277 284 276 262 251 247 240 236 237
114 202 217 226 282 283 277 281 502 558 539 589 413 357 332 345 319 336 327 332 321 253 247 241 231 233 231 291 279 278 270 267 262 259 260 259 258 258 248 242 236 232 231 227 221 219 223
189 197 217 250 278 287 279 322 350 428 398 387 359 367 344 303 351 359 349 336 309 267 251 236 234 242 278 263 255 247 246 242 241 236 234 232 233 229 229 225 221 223 223 242 240 236 240
191 192 219 257 274 301 288 292 349 384 362 358 375 361 341 343 324 298 295 284 272 247 235 237 257 264 254 246 240 238 235 233 231 228 226 222 216 239 253 249 243 233 235 231 233 259 246
192 194 232 286 271 288 312 289 305 322 352 378 359 356 311 293 284 281 276 254 251 249 240 283 259 246 243 237 236 233 230 230 225 221 260 257 251 243 240 232 226 223 218 246 217 237 236
189 213 262 267 294 292 278 297 303 323 299 336 328 354 267 255 269 235 241 234 243 272 279 251 249 243 240 236 234 236 230 280 273 260 247 238 231 223 218 208 232 234 236 237 236 229 221
187 235 274 287 304 285 287 267 283 291 338 370 349 290 280 256 261 232 236 243 266 276 190 246 240 239 235 232 232 227 221 218 213 208 208 210 208 218 225 225 240 237 220 227 222 225 221
234 257 290 283 302 267 273 299 288 290 289 329 369 360 295 255 249 249 233 237 258 260 250 246 240 236 231 228 224 222 216 212 210 211 210 220 228 220 242 244 237 218 222 228 204 218 211
246 272 282 281 277 257 285 273 290 194 294 318 335 311 397 298 253 252 241 240 245 265 252 244 240 236 232 225 217 222 217 217 215 215 223 223 214 243 244 235 221 221 217 220 205 217 209
270 301 267 279 245 256 259 274 294 292 281 309 320 315 293 393 386 255 255 239 241 223 258 249 244 241 233 228 227 222 221 221 216 219 208 215 211 247 246 235 227 223 219 170 217 207 217
270 276 278 280 276 265 267 272 288 292 272 279 317 302 321 285 320 383 263 251 238 248 220 246 247 246 231 233 227 225 225 226 214 232 212 213 248 225 247 240 205 216 217 223 223 222 223
291 288 278 277 267 283 279 273 286 286 280 270 306 303 296 317 273 303 365 262 247 233 242 241 226 237 244 235 220 230 230 221 229 219 216 236 220 203 243 246 224 228 230 189 214 220 223
295 291 277 276 275 291 267 268 277 292 289 279 281 306 293 302 312 275 286 355 327 248 244 230 247 223 244 243 238 241 235 246 251 211 209 224 225 234 245 197 210 168 225 192 215 228 188
Wind_Speed
46 54 75 43 88 95 93 53 91 88 86 62 62 57 50 46 48 54 52 51 52 68 92 93 89 87 85 85 82 89 88 92 86 82 90 90 97 107 105 96 90 82 87 87 97 94 90
53 83 67 85 44 106 78 82 97 90 81 69 62 57 46 51 49 56 58 55 56 56 74 103 89 86 83 82 83 84 90 91 86 93 78 90 89 91 94 101 102 94 102 100 92 91 91
82 104 50 87 45 108 108 75 99 95 81 79 67 60 59 67 58 56 63 63 59 63 62 77 96 92 80 85 83 84 86 93 91 87 95 92 74 88 86 90 90 90 96 98 102 100 98
86 91 87 80 59 96 111 112 105 94 91 82 70 61 52 52 62 63 63 67 63 63 63 61 88 92 92 86 86 85 84 85 92 90 92 91 88 89 87 72 88 90 88 90 97 96 97
100 107 68 61 97 105 121 109 107 98 89 64 58 49 42 36 42 66 63 66 67 65 65 66 63 91 101 88 85 84 82 84 85 89 91 91 92 85 87 86 87 86 87 90 96 94 94
53 78 86 98 112 92 110 112 110 108 65 38 32 29 27 26 28 20 76 65 66 65 67 67 64 66 89 98 91 87 82 81 81 80 82 83 88 89 85 84 87 91 90 89 90 90 90
50 54 102 85 84 125 79 113 109 101 33 27 21 16 20 14 15 19 35 70 66 71 69 61 57 53 67 93 94 87 82 82 80 79 79 80 74 84 89 97 92 85 86 87 90 89 87
60 100 94 97 121 124 115 114 107 80 32 16 21 19 17 16 14 15 25 71 70 68 68 63 58 57 59 66 94 92 82 83 81 78 79 79 78 79 84 88 88 93 91 90 92 89 86
89 70 104 92 122 125 116 115 105 46 21 21 17 17 15 9 8 8 21 43 74 71 63 61 58 57 58 54 64 92 86 84 84 80 76 73 73 74 78 79 82 84 82 89 94 91 90
50 104 111 116 71 121 113 116 104 76 52 32 25 20 15 7 8 10 12 43 65 72 62 63 56 58 52 47 48 70 82 81 80 77 77 73 74 71 72 73 78 80 84 84 82 85 91
111 104 109 117 118 121 112 106 102 83 65 45 34 23 16 5 3 1 25 47 62 72 69 60 56 54 48 43 36 50 66 67 77 80 77 77 76 74 73 75 73 73 75 80 80 77 84
108 105 109 117 119 120 107 102 88 84 64 38 30 24 16 7 2 18 39 53 67 67 63 60 53 45 42 39 38 35 52 61 61 57 76 75 77 73 75 73 74 74 73 73 74 72 75
81 104 109 118 124 107 107 98 87 80 67 44 30 20 14 4 13 48 46 54 67 75 57 49 48 39 41 41 38 37 36 58 57 54 57 76 74 77 72 70 71 71 70 69 68 66 67
55 93 75 118 122 105 99 97 85 71 57 36 21 16 14 18 35 58 47 58 65 62 48 45 47 38 36 34 33 32 32 41 60 56 54 54 55 68 73 78 69 71 69 68 66 68 69
79 106 93 118 119 102 107 97 79 64 41 29 20 15 24 32 61 56 52 56 58 55 53 46 34 30 30 25 26 29 29 35 48 58 58 54 55 57 65 69 71 69 66 68 62 65 54
76 87 113 117 110 101 105 94 68 64 24 24 18 17 32 59 54 58 55 55 56 54 47 35 40 30 26 22 24 23 25 29 38 52 50 55 54 54 55 56 60 65 65 52 46 44 49
96 101 112 116 103 98 100 91 69 33 20 25 31 58 59 55 50 57 56 54 53 50 44 38 30 21 19 18 26 25 25 26 28 31 37 39 40 46 47 40 35 35 35 36 40 46 47
51 102 112 115 98 96 95 93 60 32 34 24 58 47 35 51 33 46 49 47 47 54 45 35 24 21 19 26 26 26 24 24 25 26 25 29 30 25 21 25 28 32 34 37 43 47 52
91 97 110 108 94 90 90 85 74 53 38 35 32 44 31 28 36 41 43 42 44 47 41 27 24 20 21 22 21 24 25 26 26 26 25 23 21 21 25 30 30 30 34 25 28 36 40
92 93 109 101 90 78 81 78 74 64 51 29 30 24 22 29 37 43 39 38 38 29 23 21 22 25 26 26 24 23 22 23 21 19 20 19 23 23 23 20 17 23 23 27 28 13 23
93 93 106 80 86 75 73 72 73 66 52 21 22 15 31 31 29 30 34 23 22 21 18 27 29 28 28 25 23 22 20 19 17 18 24 28 28 24 24 22 22 23 29 14 31 17 16
90 104 93 85 70 69 75 64 63 66 54 36 30 13 17 20 18 12 17 16 14 19 28 27 29 28 27 24 22 21 20 30 30 29 27 23 22 23 23 22 17 17 15 10 4 9 22
89 102 82 67 64 67 65 72 57 53 52 37 23 10 5 9 6 3 5 12 15 26 7 29 26 25 23 23 22 21 20 18 18 18 18 20 20 20 17 17 16 16 11 6 11 9 16
99 90 63 62 61 68 63 56 54 52 42 39 24 9 4 1 2 7 7 9 15 27 28 28 26 25 23 22 21 20 19 18 19 20 20 18 16 17 14 20 21 14 13 12 15 7 15
93 73 61 58 59 66 56 59 51 51 46 48 33 26 10 8 8 13 12 12 13 28 27 27 26 25 24 23 19 21 20 19 19 20 18 17 18 15 19 23 19 19 16 11 17 11 15
75 50 65 56 68 61 61 53 48 47 44 47 36 27 16 10 18 17 22 20 21 13 30 30 30 30 26 24 24 22 20 20 20 20 22 20 18 18 23 25 24 19 19 15 15 19 15
69 59 55 52 52 54 58 53 49 46 47 41 43 28 26 8 13 14 31 30 24 28 19 27 30 33 27 28 25 23 22 22 23 19 23 21 17 15 23 25 20 23 16 15 12 16 15
54 49 50 50 52 55 52 53 49 47 43 43 44 36 27 27 7 8 14 38 37 24 28 28 25 28 33 30 24 26 25 25 24 23 23 18 16 16 22 25 28 24 19 11 13 19 18
50 46 47 47 49 51 51 54 51 49 45 42 37 41 33 32 26 13 9 21 31 42 39 27 35 29 34 32 30 30 27 25 24 25 22 19 14 21 24 20 24 20 21 12 12 19 11
Wind_Direction
343 344 356 340 352 344 346 335 339 336 336 322 314 305 292 271 256 252 249 243 232 228 222 225 225 224 224 225 224 225 226 227 228 233 233 232 234 237 239 239 240 242 245 247 248 250 248
355 351 346 349 324 346 347 346 337 334 330 322 311 301 299 276 256 245 245 237 235 229 225 223 225 224 224 225 225 227 226 227 229 230 237 233 232 233 236 239 241 242 245 245 245 246 246
345 345 346 341 331 345 343 345 335 333 326 320 315 301 285 286 269 240 237 240 230 229 228 224 224 225 223 223 224 227 228 227 227 228 229 231 238 232 234 236 238 239 241 242 244 248 250
351 339 340 349 343 347 347 344 336 331 328 324 307 298 289 272 245 248 228 232 231 226 227 224 224 224 224 223 222 224 227 227 229 229 227 230 232 234 234 238 237 240 239 239 242 245 248
344 344 354 342 345 343 348 338 337 332 329 316 309 299 292 284 264 236 231 227 230 222 224 224 221 222 222 223 224 224 224 226 230 230 230 229 230 233 235 235 237 239 240 240 244 247 249
340 349 344 344 347 343 337 339 338 338 325 318 310 306 300 291 276 262 225 222 224 224 222 221 221 216 217 222 223 225 224 224 226 229 232 231 232 231 234 236 238 237 239 241 243 244 247
341 336 343 343 343 345 336 339 338 336 333 329 328 336 320 323 305 265 221 213 223 219 220 220 221 219 218 220 222 224 222 225 226 231 231 232 233 232 232 233 237 240 241 243 245 246 247
338 345 345 346 346 345 340 341 342 339 333 347 330 320 310 290 266 312 216 208 210 219 218 215 213 216 216 219 221 223 223 225 226 229 232 234 230 231 234 233 235 237 241 243 245 247 248
342 345 344 345 346 346 341 342 343 349 349 356 355 334 341 304 274 229 195 192 203 212 213 213 210 213 216 219 215 223 224 226 227 229 228 230 234 236 234 235 236 237 240 241 242 247 249
340 344 343 347 354 345 342 344 344 355 2 4 4 355 337 312 245 316 189 179 184 203 208 210 206 212 213 217 216 216 223 224 227 227 226 228 229 234 236 237 237 238 239 242 244 247 245
339 342 344 346 348 345 345 346 346 354 356 352 348 342 350 283 219 308 164 165 175 195 201 206 204 210 210 213 215 215 217 225 225 229 223 227 229 230 234 235 239 239 241 243 246 250 249
340 342 344 346 347 345 347 348 352 353 355 344 337 333 337 324 273 147 144 160 172 193 199 200 204 204 208 210 210 212 213 220 225 227 225 226 227 231 234 236 238 241 244 246 249 254 252
339 339 344 346 344 345 349 351 354 351 351 352 358 358 353 6 129 144 156 153 168 190 190 192 200 202 205 210 206 209 210 212 219 221 224 227 228 230 234 238 241 243 246 249 253 256 258
340 340 359 345 343 345 358 353 354 351 350 355 17 25 38 107 136 136 149 157 175 190 185 191 198 201 205 209 209 211 216 209 213 218 223 225 230 233 236 237 242 246 249 252 256 258 260
350 342 349 344 343 345 346 354 352 353 352 1 18 50 102 121 134 146 138 162 177 180 183 191 193 200 206 208 214 213 211 202 208 216 220 223 227 231 234 237 241 247 253 255 258 261 263
340 343 342 342 341 345 346 356 353 358 4 21 30 86 113 127 129 141 157 168 173 173 181 186 192 188 188 209 208 198 187 193 204 214 219 224 229 233 235 238 243 247 252 257 257 259 258
341 342 341 341 340 344 347 1 358 9 22 55 92 107 119 128 137 151 163 170 168 166 178 185 194 182 198 211 188 182 181 186 191 200 214 221 229 237 239 240 237 241 248 253 256 260 262
339 341 340 340 339 343 347 352 5 33 63 65 118 118 123 136 140 161 160 166 160 168 178 181 161 185 187 183 183 175 165 167 170 180 186 198 208 213 215 225 234 241 250 255 258 263 268
339 341 339 337 338 342 347 6 9 31 61 103 112 139 130 112 151 152 155 158 149 161 172 162 174 184 174 164 158 162 165 170 175 189 199 209 214 221 229 233 240 243 251 250 261 266 274
338 340 337 337 336 346 349 355 12 24 26 42 130 130 99 113 121 117 122 131 143 146 146 162 170 160 158 163 166 168 178 179 187 192 203 209 219 197 187 193 212 234 248 257 267 278 282
336 338 334 338 335 344 352 357 9 17 28 50 47 114 108 109 111 118 127 114 127 143 152 163 159 164 162 168 171 177 182 187 190 202 172 161 167 180 192 213 227 242 251 236 269 270 290
335 332 332 333 339 343 343 353 7 15 20 34 31 110 48 34 107 88 111 123 129 153 152 158 162 168 171 171 173 175 176 166 160 157 165 181 191 210 221 237 232 238 243 237 327 303 291
333 326 330 336 339 339 347 342 353 8 15 23 34 88 80 33 81 329 131 136 153 154 153 168 175 174 174 175 175 175 177 181 191 203 211 217 226 224 227 230 196 214 235 221 260 310 321
320 323 328 335 339 335 339 351 348 358 11 19 20 21 141 103 244 222 257 195 171 168 172 176 184 184 184 185 190 188 192 198 207 215 221 225 223 232 198 180 182 222 235 219 277 290 304
317 321 325 332 334 331 341 339 348 343 1 6 16 25 291 212 220 221 243 243 211 183 182 185 193 198 195 198 197 199 201 205 214 223 225 224 238 212 188 196 219 223 235 232 280 261 302
317 318 321 328 323 328 331 337 347 350 346 358 2 8 20 291 256 233 217 236 234 238 196 197 197 201 204 205 206 207 205 210 215 223 233 235 239 202 198 201 207 219 240 272 272 277 279
315 313 319 325 328 330 329 331 345 346 336 347 349 356 354 354 0 276 226 230 251 225 227 215 208 204 207 210 212 214 215 216 217 215 230 239 210 248 203 203 222 231 254 243 261 268 286
307 310 316 322 324 327 329 329 338 339 336 334 345 339 340 335 301 329 283 229 235 248 241 233 232 224 212 213 211 216 218 210 216 216 228 215 245 211 202 213 214 225 228 275 286 277 287
301 306 314 319 322 325 324 323 334 336 333 332 332 332 326 324 316 275 265 271 235 233 236 237 230 233 219 218 219 223 220 224 218 221 232 230 240 218 204 226 224 265 232 258 291 285 284